Location: La Tine
(46.4708°N, 7.0525°E)
Time: 00:28:34
(UTC+00:00)

Meteor 2-5 Rocket - Pass Details

Date: 18 September 2020
Orbit: 833 x 912 km, 81.2° (Epoch: 31 October)

Event Time Altitude Azimuth Distance (km) Brightness Sun altitude
Rises 20:21:25 0° 345° (NNW) 3,416 7.6 -27.4°
Reaches altitude 10° 20:23:50 10° 343° (NNW) 2,485 6.8 -27.7°
Maximum altitude 20:29:23 61° 264° (W) 972 4.1 -28.5°
Enters shadow 20:30:19 53° 222° (SW) 1,049 4.1 -28.6°
